Hourly Data Report for October 16, 2014

All times are specified in Local Standard Time (LST). Add 1 hour to adjust for Daylight Saving Time where and when it is observed.

ARVIAT A
NUNAVUT

61°05'38.000" N
94°04'18.000" W
10.40 m
2300427
71174
YEK

Download Data

Hourly Data (October 2014)
Hourly Data Report for October 16, 2014
Temp Definition
°C
Dew Point Temp Definition
°C
Rel Hum Definition
%
Wind Dir Definition
10's deg

Wind Spd Definition
km/h
Visibility Definition
km
Stn Press Definition
kPa
Hmdx Definition


Wind Chill Definition


Weather Definition


TIME
00:00 Legend Double Dagger -3.0 -3.6 96 36 34 2.8 101.29   -11 Snow
01:00 Legend Double Dagger -2.9 -3.9 93 36 30 16.1 101.32   -10 LegendNANA
02:00 Legend Double Dagger -3.5 -4.5 93 36 34 16.1 101.39   -11 LegendNANA
03:00 Legend Double Dagger -4.9 -5.6 95 35 28 16.1 101.48   -13 LegendNANA
04:00 Legend Double Dagger -5.0 -5.5 96 36 28 16.1 101.58   -13 LegendNANA
05:00 Legend Double Dagger -5.6 -6.1 96 36 24 16.1 101.66   -13 LegendNANA
06:00 Legend Double Dagger -6.3 -7.0 95 36 24 16.1 101.75   -14 LegendNANA
07:00 Legend Double Dagger -6.1 -6.8 95 36 28 16.1 101.82   -14 LegendNANA
08:00 Legend Double Dagger -6.2 -7.2 93 36 26 16.1 101.89   -14 LegendNANA
09:00 Legend Double Dagger -5.5 -6.6 92 36 24 16.1 101.96   -13 LegendNANA
10:00 Legend Double Dagger -6.2 -7.3 92 35 24 16.1 102.07   -14 LegendNANA
11:00 Legend Double Dagger -5.0 -6.0 93 36 18 16.1 102.16   -11 LegendNANA
12:00 Legend Double Dagger -4.5 -5.5 93 36 28 9.7 102.21   -12 Fog
13:00 Legend Double Dagger -4.4 -5.1 95 36 28 6.4 102.28   -12 Fog
14:00 Legend Double Dagger -3.1 -5.4 84 36 30 16.1 102.30   -11 LegendNANA
15:00 Legend Double Dagger -2.9 -5.3 83 1 28 16.1 102.35   -10 LegendNANA
16:00 Legend Double Dagger -2.7 -5.6 80 1 26 16.1 102.41   -10 LegendNANA
17:00 Legend Double Dagger -2.6 -5.8 79 1 22 16.1 102.47   -9 LegendNANA
18:00 Legend Double Dagger -2.6 -6.1 77 36 24 16.1 102.54   -9 LegendNANA
19:00 Legend Double Dagger -2.7 -6.4 76 2 21 16.1 102.59   -9 LegendNANA
20:00 Legend Double Dagger -3.4 -6.3 81 35 21 16.1 102.63   -10 LegendNANA
21:00 Legend Double Dagger -4.4 -5.4 93 35 22 16.1 102.67   -11 LegendNANA
22:00 Legend Double Dagger -5.6 -6.6 93 34 17 16.1 102.70   -12 LegendNANA
23:00 Legend Double Dagger -7.3 -7.8 96 32 15 16.1 102.71   -13 LegendNANA

Notes on Data Quality.

Legend

  • E = Estimated
  • M = Missing
  • NA = Not Available
  • ‡ = Partner data that is not subject to review by the National Climate Archives
Date modified: